Location: Unspecified
(0.0000°N, 0.0000°E)
Time: 03:38:30
(UTC+00:00)

GONETS D1M 1 - Pass Details

Date: 25 May 2026
Orbit: 1435 x 1448 km, 82.5° (Epoch: 9 June)

Event Time Altitude Azimuth Distance (km) Brightness Sun altitude
Rises 05:26:04 0° 190° (S) 4,538 9.0 -7.2°
Reaches altitude 10° 05:28:56 10° 193° (SSW) 3,560 8.4 -6.5°
Maximum altitude 05:37:21 65° 273° (W) 1,565 6.7 -4.6°
Drops below altitude 10° 05:45:46 10° 354° (N) 3,554 8.9 -2.6°
Sets 05:48:39 0° 357° (N) 4,530 9.5 -1.9°
